Location: Gleizolles
(44.4833°N, 6.7667°E)
Time: 12:53:08
(UTC+00:00)

Envisat - Pass Details

Date: 16 December 2021
Orbit: 764 x 766 km, 98.2° (Epoch: 28 January)

Event Time Altitude Azimuth Distance (km) Brightness Sun altitude
Rises 04:44:52 0° 12° (NNE) 3,243 6.3 -23.7°
Reaches altitude 10° 04:47:11 10° 11° (N) 2,312 5.5 -23.3°
Maximum altitude 04:52:17 79° 285° (WNW) 785 2.8 -22.4°
Drops below altitude 10° 04:57:20 10° 200° (SSW) 2,294 5.4 -21.5°
Sets 04:59:37 0° 199° (SSW) 3,216 6.2 -21.1°
